RYR12F EGKK-EGGP

Flight info

Callsign RYR12F
Flight time 0h 42m
Altitude 24000
Route LAM N57 WELIN T420 ELVOS
Aircraft B738/M-SDE2E3FGHIRWXY/LB1

Departure

Time 2026-05-08 04:12
Airport London Gatwick Airport (EGKK)

Arrival

Time 2026-05-08 04:54
Airport Liverpool John Lennon Airport (EGGP)
Time Latitude Longitude Altitude Speed Heading
2026-05-08 03:41 51.15806 -0.17747 208 ft 0 kts 347°
2026-05-08 04:02 51.15799 -0.17745 209 ft 3 kts 347°
2026-05-08 04:03 51.15779 -0.17738 218 ft 3 kts 350°
2026-05-08 04:03 51.15740 -0.17736 219 ft 3 kts 21°
2026-05-08 04:03 51.15728 -0.17748 216 ft 2 kts 70°
2026-05-08 04:04 51.15727 -0.17752 218 ft 1 kts 76°
2026-05-08 04:06 51.15728 -0.17747 216 ft 2 kts 76°
2026-05-08 04:06 51.15734 -0.17707 220 ft 6 kts 76°
2026-05-08 04:06 51.15745 -0.17617 211 ft 10 kts 78°
2026-05-08 04:07 51.15729 -0.17507 213 ft 12 kts 151°
2026-05-08 04:07 51.15643 -0.17472 216 ft 14 kts 168°
2026-05-08 04:07 51.15547 -0.17439 209 ft 15 kts 168°
2026-05-08 04:07 51.15444 -0.17398 214 ft 14 kts 169°
2026-05-08 04:08 51.15340 -0.17366 216 ft 16 kts 169°
2026-05-08 04:08 51.15279 -0.17344 212 ft 9 kts 164°
2026-05-08 04:08 51.15222 -0.17288 212 ft 10 kts 148°
2026-05-08 04:08 51.15178 -0.17202 217 ft 11 kts 84°
2026-05-08 04:09 51.15196 -0.17072 213 ft 13 kts 77°
2026-05-08 04:09 51.15216 -0.16930 221 ft 8 kts 77°
2026-05-08 04:09 51.15219 -0.16913 217 ft 0 kts 77°
2026-05-08 04:09 51.15220 -0.16904 215 ft 2 kts 77°
2026-05-08 04:10 51.15223 -0.16870 210 ft 4 kts 87°
2026-05-08 04:10 51.15206 -0.16808 214 ft 8 kts 143°
2026-05-08 04:10 51.15133 -0.16779 212 ft 6 kts 185°
2026-05-08 04:10 51.15126 -0.16796 217 ft 4 kts 240°
2026-05-08 04:11 51.15098 -0.16966 213 ft 42 kts 258°
2026-05-08 04:11 51.14985 -0.17791 222 ft 111 kts 257°
2026-05-08 04:11 51.14773 -0.19313 213 ft 168 kts 257°
2026-05-08 04:11 51.14505 -0.21258 673 ft 182 kts 257°
2026-05-08 04:12 51.14241 -0.23236 1578 ft 182 kts 256°
2026-05-08 04:12 51.13992 -0.25211 2376 ft 187 kts 256°
2026-05-08 04:12 51.13740 -0.27357 2823 ft 210 kts 263°
2026-05-08 04:12 51.13950 -0.29760 3186 ft 228 kts 292°
2026-05-08 04:13 51.14890 -0.31766 3797 ft 234 kts 322°
2026-05-08 04:13 51.16371 -0.32789 3964 ft 235 kts 355°
2026-05-08 04:13 51.17983 -0.32334 4054 ft 245 kts 28°
2026-05-08 04:13 51.19299 -0.30488 4412 ft 262 kts 59°
2026-05-08 04:14 51.19873 -0.27725 5128 ft 266 kts 84°
2026-05-08 04:14 51.20057 -0.24776 5950 ft 268 kts 85°
2026-05-08 04:14 51.20272 -0.21809 6758 ft 271 kts 84°
2026-05-08 04:14 51.20546 -0.18794 7438 ft 278 kts 80°
2026-05-08 04:15 51.20921 -0.15737 8121 ft 284 kts 78°
2026-05-08 04:15 51.21332 -0.12626 8830 ft 289 kts 78°
2026-05-08 04:15 51.21747 -0.09505 9530 ft 295 kts 78°
2026-05-08 04:15 51.22174 -0.06272 10207 ft 300 kts 78°
2026-05-08 04:16 51.22616 -0.02914 10491 ft 321 kts 78°
2026-05-08 04:16 51.23085 0.00684 10670 ft 343 kts 78°
2026-05-08 04:16 51.23584 0.04518 10840 ft 363 kts 78°
2026-05-08 04:16 51.24109 0.08575 11061 ft 380 kts 78°
2026-05-08 04:17 51.24648 0.12749 11579 ft 387 kts 78°
2026-05-08 04:17 51.25191 0.16973 12261 ft 388 kts 78°
2026-05-08 04:17 51.25723 0.21162 12911 ft 392 kts 79°
2026-05-08 04:17 51.26232 0.25442 13446 ft 395 kts 80°
2026-05-08 04:18 51.26735 0.29772 14098 ft 397 kts 80°
2026-05-08 04:18 51.27279 0.34116 14702 ft 401 kts 74°
2026-05-08 04:18 51.28534 0.38104 15308 ft 406 kts 52°
2026-05-08 04:18 51.30614 0.41136 15992 ft 408 kts 32°
2026-05-08 04:19 51.33214 0.42941 16640 ft 410 kts 13°
2026-05-08 04:19 51.36052 0.43330 17246 ft 411 kts 353°
2026-05-08 04:19 51.38754 0.42366 18370 ft 398 kts 337°
2026-05-08 04:19 51.41163 0.40287 19220 ft 392 kts 326°
2026-05-08 04:20 51.43447 0.37875 19854 ft 396 kts 324°
2026-05-08 04:20 51.45740 0.35371 20333 ft 401 kts 324°
2026-05-08 04:20 51.48062 0.32836 20878 ft 405 kts 324°
2026-05-08 04:20 51.50400 0.30308 21464 ft 407 kts 324°
2026-05-08 04:21 51.52766 0.27773 21989 ft 410 kts 324°
2026-05-08 04:21 51.55181 0.25203 22067 ft 424 kts 324°
2026-05-08 04:21 51.57643 0.22590 22088 ft 436 kts 325°
2026-05-08 04:21 51.60191 0.19889 22077 ft 440 kts 325°
2026-05-08 04:22 51.62747 0.17176 22074 ft 438 kts 325°
2026-05-08 04:22 51.65238 0.14381 22064 ft 434 kts 319°
2026-05-08 04:22 51.67442 0.11058 22094 ft 438 kts 313°
2026-05-08 04:22 51.69575 0.07497 22087 ft 446 kts 311°
2026-05-08 04:23 51.71712 0.03838 22082 ft 450 kts 311°
2026-05-08 04:23 51.73852 0.00179 22069 ft 446 kts 312°
2026-05-08 04:23 51.75962 -0.03390 22074 ft 445 kts 312°
2026-05-08 04:23 51.78117 -0.07000 22084 ft 447 kts 312°
2026-05-08 04:24 51.80284 -0.10606 22082 ft 448 kts 313°
2026-05-08 04:24 51.82463 -0.14221 22078 ft 449 kts 313°
2026-05-08 04:24 51.84645 -0.17837 22077 ft 449 kts 313°
2026-05-08 04:24 51.86826 -0.21453 22073 ft 449 kts 313°
2026-05-08 04:25 51.89003 -0.25069 22077 ft 448 kts 313°
2026-05-08 04:25 51.91174 -0.28680 22075 ft 448 kts 313°
2026-05-08 04:25 51.93316 -0.32250 22075 ft 447 kts 313°
2026-05-08 04:25 51.95481 -0.35866 22075 ft 447 kts 313°
2026-05-08 04:26 51.97643 -0.39482 22077 ft 446 kts 313°
2026-05-08 04:26 51.99801 -0.43097 22078 ft 446 kts 313°
2026-05-08 04:26 52.01960 -0.46719 22075 ft 446 kts 313°
2026-05-08 04:26 52.04117 -0.50342 22078 ft 446 kts 313°
2026-05-08 04:27 52.06274 -0.53972 22072 ft 447 kts 313°
2026-05-08 04:27 52.08431 -0.57608 22072 ft 447 kts 313°
2026-05-08 04:27 52.10559 -0.61197 22069 ft 447 kts 313°
2026-05-08 04:27 52.12717 -0.64846 22072 ft 447 kts 313°
2026-05-08 04:28 52.14873 -0.68494 22071 ft 447 kts 313°
2026-05-08 04:28 52.17029 -0.72149 22065 ft 448 kts 313°
2026-05-08 04:28 52.19183 -0.75806 22062 ft 448 kts 313°
2026-05-08 04:28 52.21340 -0.79472 22060 ft 448 kts 313°
2026-05-08 04:29 52.23500 -0.83130 22062 ft 448 kts 314°
2026-05-08 04:29 52.25854 -0.86463 22059 ft 449 kts 323°
2026-05-08 04:29 52.28461 -0.89166 22069 ft 450 kts 328°
2026-05-08 04:29 52.31157 -0.91765 22064 ft 450 kts 328°
2026-05-08 04:30 52.33858 -0.94360 22059 ft 450 kts 328°
2026-05-08 04:30 52.36550 -0.96980 22060 ft 450 kts 328°
2026-05-08 04:30 52.39231 -0.99627 22070 ft 450 kts 327°
2026-05-08 04:30 52.41905 -1.02292 22063 ft 450 kts 327°
2026-05-08 04:31 52.44576 -1.04965 22035 ft 450 kts 327°
2026-05-08 04:31 52.47244 -1.07637 22036 ft 450 kts 327°
2026-05-08 04:31 52.49914 -1.10317 22027 ft 449 kts 327°
2026-05-08 04:31 52.52537 -1.12975 22019 ft 449 kts 327°
2026-05-08 04:32 52.55195 -1.15676 22014 ft 449 kts 327°
2026-05-08 04:32 52.57853 -1.18377 22004 ft 449 kts 327°
2026-05-08 04:32 52.60520 -1.21078 21724 ft 451 kts 327°
2026-05-08 04:32 52.63165 -1.23754 21265 ft 441 kts 327°
2026-05-08 04:33 52.65746 -1.26369 20796 ft 431 kts 327°
2026-05-08 04:33 52.68275 -1.28938 20281 ft 423 kts 327°
2026-05-08 04:33 52.70724 -1.31430 19858 ft 414 kts 327°
2026-05-08 04:33 52.73140 -1.33887 19578 ft 403 kts 327°
2026-05-08 04:34 52.75493 -1.36280 19382 ft 392 kts 327°
2026-05-08 04:34 52.77789 -1.38618 19096 ft 383 kts 327°
2026-05-08 04:34 52.80028 -1.40902 18826 ft 374 kts 326°
2026-05-08 04:34 52.82221 -1.43142 18567 ft 368 kts 326°
2026-05-08 04:35 52.84383 -1.45355 18305 ft 364 kts 326°
2026-05-08 04:35 52.86529 -1.47555 18015 ft 362 kts 326°
2026-05-08 04:35 52.88665 -1.49746 17737 ft 360 kts 326°
2026-05-08 04:35 52.90763 -1.51901 17475 ft 359 kts 326°
2026-05-08 04:36 52.92881 -1.54079 17215 ft 358 kts 326°
2026-05-08 04:36 52.94997 -1.56257 16955 ft 358 kts 326°
2026-05-08 04:36 52.97110 -1.58434 16699 ft 358 kts 326°
2026-05-08 04:36 52.99224 -1.60614 16440 ft 357 kts 326°
2026-05-08 04:37 53.01334 -1.62793 16182 ft 357 kts 326°
2026-05-08 04:37 53.03432 -1.65039 15927 ft 363 kts 320°
2026-05-08 04:37 53.05098 -1.68191 15661 ft 367 kts 298°
2026-05-08 04:37 53.05978 -1.72085 15404 ft 365 kts 280°
2026-05-08 04:38 53.06409 -1.76218 15148 ft 361 kts 278°
2026-05-08 04:38 53.06780 -1.80340 14883 ft 360 kts 277°
2026-05-08 04:38 53.07138 -1.84442 14620 ft 359 kts 277°
2026-05-08 04:38 53.07500 -1.88541 14363 ft 357 kts 277°
2026-05-08 04:39 53.07868 -1.92617 14108 ft 356 kts 278°
2026-05-08 04:39 53.08242 -1.96679 13855 ft 355 kts 278°
2026-05-08 04:39 53.08617 -2.00724 13571 ft 353 kts 278°
2026-05-08 04:39 53.08992 -2.04753 13301 ft 352 kts 278°
2026-05-08 04:40 53.09362 -2.08721 13044 ft 351 kts 278°
2026-05-08 04:40 53.09735 -2.12722 12783 ft 349 kts 278°
2026-05-08 04:40 53.10104 -2.16703 12539 ft 348 kts 278°
2026-05-08 04:40 53.10471 -2.20673 12284 ft 347 kts 278°
2026-05-08 04:41 53.10837 -2.24642 12037 ft 346 kts 278°
2026-05-08 04:41 53.11200 -2.28599 11789 ft 346 kts 278°
2026-05-08 04:41 53.11560 -2.32544 11543 ft 345 kts 278°
2026-05-08 04:41 53.11918 -2.36474 11293 ft 341 kts 278°
2026-05-08 04:42 53.12264 -2.40282 11048 ft 333 kts 278°
2026-05-08 04:42 53.12604 -2.44036 10809 ft 324 kts 277°
2026-05-08 04:42 53.12934 -2.47695 10580 ft 316 kts 277°
2026-05-08 04:42 53.13255 -2.51263 10361 ft 308 kts 277°
2026-05-08 04:43 53.13567 -2.54753 10140 ft 301 kts 277°
2026-05-08 04:43 53.13876 -2.58163 9969 ft 293 kts 278°
2026-05-08 04:43 53.14188 -2.61426 9979 ft 279 kts 278°
2026-05-08 04:43 53.14487 -2.64507 9906 ft 269 kts 278°
2026-05-08 04:44 53.14783 -2.67564 9645 ft 266 kts 278°
2026-05-08 04:44 53.15076 -2.70605 9321 ft 266 kts 278°
2026-05-08 04:44 53.15367 -2.73637 9018 ft 264 kts 278°
2026-05-08 04:44 53.15655 -2.76654 8718 ft 263 kts 277°
2026-05-08 04:45 53.15942 -2.79663 8424 ft 262 kts 277°
2026-05-08 04:45 53.16226 -2.82655 8137 ft 261 kts 277°
2026-05-08 04:45 53.16507 -2.85628 7857 ft 259 kts 277°
2026-05-08 04:45 53.16784 -2.88560 7567 ft 259 kts 277°
2026-05-08 04:46 53.17062 -2.91512 7290 ft 258 kts 277°
2026-05-08 04:46 53.17338 -2.94462 7013 ft 257 kts 277°
2026-05-08 04:46 53.17613 -2.97401 6739 ft 256 kts 277°
2026-05-08 04:46 53.17886 -3.00328 6463 ft 255 kts 277°
2026-05-08 04:47 53.18158 -3.03246 6167 ft 254 kts 277°
2026-05-08 04:47 53.18429 -3.06150 5947 ft 251 kts 277°
2026-05-08 04:47 53.18690 -3.08967 5833 ft 243 kts 277°
2026-05-08 04:47 53.18942 -3.11703 5736 ft 234 kts 277°
2026-05-08 04:48 53.19182 -3.14302 5638 ft 226 kts 277°
2026-05-08 04:48 53.19676 -3.16745 5453 ft 224 kts 303°
2026-05-08 04:48 53.20874 -3.18374 5210 ft 227 kts 337°
2026-05-08 04:48 53.22438 -3.18664 4939 ft 230 kts
2026-05-08 04:49 53.23968 -3.17915 4778 ft 225 kts 19°
2026-05-08 04:49 53.25394 -3.17023 4704 ft 213 kts 20°
2026-05-08 04:49 53.26766 -3.16161 4440 ft 210 kts 19°
2026-05-08 04:49 53.28132 -3.15316 4127 ft 209 kts 19°
2026-05-08 04:50 53.29498 -3.14478 3834 ft 209 kts 19°
2026-05-08 04:50 53.30830 -3.13611 3537 ft 208 kts 28°
2026-05-08 04:50 53.31782 -3.11850 3162 ft 205 kts 73°
2026-05-08 04:50 53.32084 -3.09562 2885 ft 201 kts 82°
2026-05-08 04:51 53.32330 -3.07269 2596 ft 198 kts 85°
2026-05-08 04:51 53.32468 -3.05010 2329 ft 193 kts 89°
2026-05-08 04:51 53.32564 -3.02837 2074 ft 182 kts 90°
2026-05-08 04:51 53.32653 -3.00786 1819 ft 172 kts 90°
2026-05-08 04:52 53.32737 -2.98882 1601 ft 156 kts 90°
2026-05-08 04:52 53.32813 -2.97169 1398 ft 144 kts 90°
2026-05-08 04:52 53.32886 -2.95507 1195 ft 143 kts 91°
2026-05-08 04:52 53.32960 -2.93849 983 ft 143 kts 89°
2026-05-08 04:53 53.33034 -2.92218 793 ft 139 kts 89°
2026-05-08 04:53 53.33107 -2.90612 587 ft 138 kts 88°
2026-05-08 04:53 53.33180 -2.88998 388 ft 140 kts 88°
2026-05-08 04:53 53.33254 -2.87371 203 ft 140 kts 88°
2026-05-08 04:54 53.33326 -2.85771 90 ft 130 kts 86°
2026-05-08 04:54 53.33381 -2.84599 91 ft 69 kts 86°
2026-05-08 04:54 53.33401 -2.84159 88 ft 10 kts 85°
2026-05-08 04:54 53.33406 -2.84036 88 ft 12 kts 85°
2026-05-08 04:55 53.33414 -2.83870 91 ft 17 kts 85°
2026-05-08 04:55 53.33433 -2.83656 89 ft 16 kts 55°
2026-05-08 04:55 53.33523 -2.83629 91 ft 12 kts 349°
2026-05-08 04:55 53.33585 -2.83662 91 ft 6 kts 300°
2026-05-08 04:56 53.33588 -2.83731 88 ft 6 kts 266°
2026-05-08 04:56 53.33585 -2.83804 89 ft 7 kts 265°
2026-05-08 04:56 53.33581 -2.83895 89 ft 9 kts 265°
2026-05-08 04:56 53.33575 -2.84011 90 ft 11 kts 265°
2026-05-08 04:57 53.33569 -2.84153 90 ft 13 kts 265°
2026-05-08 04:57 53.33561 -2.84316 88 ft 15 kts 264°
2026-05-08 04:57 53.33552 -2.84499 88 ft 17 kts 266°
2026-05-08 04:57 53.33543 -2.84700 88 ft 18 kts 265°
2026-05-08 04:58 53.33535 -2.84879 89 ft 13 kts 266°
2026-05-08 04:58 53.33528 -2.85009 88 ft 10 kts 266°
2026-05-08 04:58 53.33523 -2.85131 92 ft 11 kts 266°
2026-05-08 04:58 53.33517 -2.85272 88 ft 13 kts 266°
2026-05-08 04:59 53.33509 -2.85428 92 ft 14 kts 265°
2026-05-08 04:59 53.33524 -2.85501 89 ft 6 kts 329°
2026-05-08 04:59 53.33572 -2.85512 90 ft 8 kts 356°
2026-05-08 04:59 53.33618 -2.85471 89 ft 7 kts 69°
2026-05-08 05:00 53.33649 -2.85436 88 ft 2 kts
2026-05-08 05:00 53.33664 -2.85439 91 ft 2 kts 355°
2026-05-08 05:00 53.33667 -2.85439 91 ft 0 kts 355°